Wind_Speed
46 46 46 46 46 45 44 44 43 43 43 43 43 43 43 44 44 46 47 48 49 50 51 51 51 51 51 51 50 50 50 50 50 49 49 50 50 50 50 49 49 49
47 48 48 48 47 47 46 45 45 45 44 44 43 43 42 41 41 42 43 44 44 45 45 45 46 46 46 46 46 47 47 47 47 47 47 48 48 48 48 48 47 47
47 47 47 47 47 47 46 46 46 46 46 45 45 44 43 43 42 42 42 42 42 42 42 42 42 43 43 43 43 44 45 46 46 45 45 46 46 46 46 46 46 46
44 44 44 44 45 45 45 45 46 46 46 46 46 46 45 45 44 43 42 42 42 42 42 42 42 42 42 42 43 44 44 44 44 44 44 45 44 44 44 44 45 45
42 42 42 42 42 42 43 43 43 44 44 45 45 45 46 46 45 44 44 43 42 42 42 42 42 42 42 42 42 43 43 43 43 43 44 44 43 43 43 44 44 44
41 40 40 40 39 40 40 40 40 40 41 41 42 43 43 44 44 44 44 43 43 43 43 43 43 42 42 42 42 42 42 42 41 41 42 43 42 42 42 43 43 43
39 38 38 37 37 37 38 38 37 37 37 38 39 40 39 41 42 42 42 42 43 43 43 42 42 41 41 41 42 43 43 42 42 41 42 42 42 42 42 42 43 43
37 36 36 36 36 36 36 36 36 37 37 38 38 37 37 38 38 39 39 40 41 41 41 41 40 40 40 40 42 43 43 43 43 43 43 42 42 43 42 42 43 43
35 35 35 35 35 35 36 36 36 36 37 37 38 37 36 37 37 37 37 38 38 39 39 38 38 38 38 38 40 41 42 43 43 43 43 43 43 43 42 42 42 43
33 33 33 33 34 35 36 37 37 37 37 37 37 37 37 37 37 38 38 38 38 38 37 37 38 37 37 37 38 39 40 41 42 43 43 43 43 42 42 41 42 43
32 32 33 34 35 36 36 37 37 37 37 37 38 38 38 38 38 38 39 40 40 40 40 40 40 40 40 40 40 40 40 41 41 42 43 44 44 43 41 41 41 42
35 35 36 37 37 38 38 39 40 40 40 40 41 41 41 41 41 41 42 43 43 43 43 43 43 43 44 44 44 44 44 44 43 43 44 44 44 44 43 42 42 42
41 41 41 42 42 42 42 43 44 45 45 46 47 47 47 46 47 47 48 48 48 47 47 46 46 46 47 47 47 47 48 48 48 47 47 46 46 46 45 44 44 43
46 45 46 46 47 46 46 45 46 46 47 47 48 49 49 49 49 50 50 51 51 51 50 50 50 50 50 50 50 50 50 50 51 51 51 50 49 48 47 47 47 46
51 50 50 49 49 48 47 47 46 46 46 47 46 47 47 47 48 49 50 51 51 51 50 50 50 51 51 51 52 52 53 53 53 53 53 53 53 51 50 50 49 49
54 54 54 52 51 50 49 48 48 47 47 47 48 48 48 48 48 48 49 51 51 51 50 49 49 49 49 50 50 51 52 53 54 54 54 54 54 54 53 52 52 51
57 56 56 55 53 52 51 51 51 50 49 49 49 50 50 50 50 50 50 50 51 51 51 50 50 49 49 50 50 51 51 52 52 52 52 52 53 54 54 54 53 53
57 57 57 57 55 53 52 52 52 52 51 50 50 50 51 51 51 51 51 51 52 52 52 52 51 50 51 52 52 52 53 54 54 53 52 51 52 53 53 54 54 54
53 54 55 57 57 55 53 53 53 52 52 51 51 51 51 51 51 51 51 51 52 53 53 53 53 52 52 53 54 54 55 57 56 56 55 54 53 53 53 53 54 54
50 51 52 53 54 54 54 53 52 52 52 52 53 53 53 52 52 52 52 52 53 54 54 54 53 53 53 54 54 55 56 58 58 58 58 58 57 56 55 55 55 55
52 51 51 51 52 52 53 52 52 52 53 53 54 54 55 55 54 54 54 54 54 55 56 55 54 53 54 55 55 56 57 58 59 59 60 60 60 59 59 58 57 57
53 53 52 52 52 52 53 53 54 54 55 55 56 56 56 56 56 56 56 56 56 56 57 57 55 55 56 56 56 57 58 59 60 60 61 61 61 61 62 62 61 61
56 56 56 56 55 55 56 57 57 57 57 57 57 56 56 56 57 57 57 57 58 58 58 59 57 56 56 56 55 56 57 58 60 61 62 62 62 62 63 63 63 63
56 57 58 59 59 60 60 59 59 58 57 57 57 57 56 56 56 56 56 57 58 58 59 59 59 58 58 57 56 55 56 56 57 59 61 62 63 63 64 64 64 64
54 54 54 55 56 57 58 58 58 57 56 56 55 56 56 56 56 56 56 56 57 57 58 59 60 59 59 59 58 57 57 56 56 57 58 59 60 61 63 64 64 64
53 53 53 52 53 53 54 55 55 56 56 56 55 55 55 55 55 56 56 56 56 57 58 59 60 60 60 60 60 60 60 59 58 58 58 58 58 58 59 60 61 62
Wind_Direction
260 262 263 265 267 269 271 272 272 273 272 272 272 271 271 271 272 272 272 273 273 273 273 273 273 274 274 275 275 275 275 275 275 276 275 275 275 275 275 275 275 275
260 262 264 266 268 270 272 273 273 274 274 274 274 274 274 275 275 274 274 274 274 274 274 274 274 274 273 274 274 274 274 274 274 275 275 274 274 274 274 275 275 275
262 263 264 265 267 268 268 269 270 271 272 273 275 276 277 277 276 276 276 276 276 276 276 275 275 274 274 273 273 273 273 273 274 274 274 273 273 273 274 274 275 275
262 263 264 265 265 266 266 265 266 267 269 271 273 275 276 277 277 277 278 278 278 277 277 276 276 275 275 274 274 273 273 273 273 273 273 273 273 273 274 274 274 274
260 262 264 265 265 265 265 265 266 267 268 270 271 273 274 276 277 278 278 278 278 277 277 276 276 276 276 276 276 275 275 275 274 274 274 273 273 273 274 274 274 274
259 260 261 263 264 265 265 266 267 268 269 270 271 272 273 274 275 276 277 277 277 277 276 276 277 277 277 277 277 276 276 276 275 275 275 275 274 274 273 273 272 272
260 260 260 261 262 263 264 265 267 268 269 270 270 271 272 272 273 274 274 275 275 275 275 276 276 277 277 277 277 276 276 276 276 275 275 276 276 275 274 273 272 271
261 261 260 261 261 262 262 263 264 265 266 267 268 268 269 270 271 271 271 272 272 272 273 274 274 275 276 276 276 276 277 276 276 276 276 276 276 275 275 274 273 271
259 259 259 259 259 259 259 260 260 261 261 263 264 264 265 266 267 267 268 268 269 270 270 271 273 274 275 276 277 278 278 278 278 277 277 276 276 276 276 275 274 272
256 257 257 257 257 257 257 258 258 259 259 260 261 262 262 263 264 266 267 267 268 269 270 271 272 273 275 276 278 279 279 279 279 279 279 278 278 277 277 277 275 274
257 258 259 258 258 259 260 260 260 261 261 262 262 263 263 263 265 266 268 270 270 271 271 272 273 275 276 276 278 279 280 281 281 281 280 279 279 278 278 278 276 275
263 265 265 264 264 264 265 265 265 266 266 266 267 267 267 268 270 271 272 273 273 274 274 275 276 276 277 278 279 280 281 282 282 282 281 280 279 278 277 277 275 274
268 270 271 272 273 273 273 271 270 269 270 270 271 271 272 272 273 273 273 273 274 274 275 276 277 277 278 279 280 281 282 282 282 282 281 280 279 277 276 275 273 272
270 272 275 278 280 280 279 278 275 274 273 273 274 274 274 274 274 273 272 271 272 273 274 276 276 277 278 280 281 282 282 283 283 282 282 281 279 278 276 274 272 270
277 276 278 281 281 281 280 279 278 277 275 274 275 275 275 276 275 274 273 271 271 272 273 275 276 277 278 279 280 281 281 282 282 282 281 281 280 278 275 274 273 271
280 279 279 280 280 278 278 277 277 277 275 274 274 274 274 274 274 274 273 273 272 272 273 274 275 276 277 277 278 278 279 279 279 279 279 279 278 277 275 273 272 272
278 278 278 279 278 277 276 276 276 276 275 273 272 271 271 271 272 272 272 272 272 272 272 273 274 274 274 273 273 274 274 275 276 276 276 276 276 276 275 274 272 271
274 275 276 276 277 276 275 275 275 275 275 274 272 271 270 270 270 270 270 271 271 272 272 272 272 272 271 270 270 270 270 270 271 272 273 273 273 273 274 274 273 272
270 272 273 273 274 275 276 276 275 275 275 274 273 272 271 270 269 269 269 270 270 270 271 271 272 272 271 270 269 268 268 268 268 268 268 269 270 270 271 272 272 273
269 271 272 272 272 273 274 274 274 273 272 272 272 271 270 269 269 268 268 268 268 269 269 270 271 271 271 271 270 270 270 269 268 267 267 266 267 267 268 268 269 270
269 270 271 271 271 271 272 272 270 269 269 268 268 269 269 269 268 268 268 267 268 268 268 268 268 269 269 270 271 271 271 271 270 270 269 268 267 266 266 266 266 267
267 268 269 269 269 269 269 269 269 269 269 268 268 267 268 268 269 269 270 269 270 270 271 270 268 268 269 270 270 271 271 271 270 270 270 270 269 269 268 266 265 265
266 266 267 267 268 268 269 269 270 270 271 271 271 269 269 270 270 271 271 272 272 273 274 273 271 270 272 272 272 273 273 272 271 271 270 269 269 269 269 268 267 266
265 266 266 267 268 269 270 270 271 272 273 274 274 273 272 273 273 273 273 273 274 275 275 275 274 273 274 275 274 274 274 274 274 273 272 270 270 269 269 269 269 267
269 270 270 271 271 272 272 273 274 276 277 278 278 277 276 276 276 276 275 275 277 277 277 277 276 274 275 277 276 275 275 276 276 275 275 274 273 272 271 270 270 269
274 275 276 277 277 277 277 278 278 278 279 280 280 280 280 279 279 279 278 278 279 280 279 280 279 278 277 279 279 277 277 277 277 276 277 276 276 275 274 272 272 271
Height
3068 3068 3068 3068 3069 3070 3070 3071 3071 3071 3070 3071 3071 3071 3071 3071 3071 3071 3071 3071 3071 3071 3071 3071 3071 3071 3071 3071 3071 3070 3069 3069 3069 3069 3069 3068 3068 3067 3067 3067 3067 3066
3064 3064 3064 3064 3064 3065 3065 3065 3065 3065 3065 3065 3065 3065 3066 3066 3066 3066 3065 3065 3065 3065 3065 3065 3065 3066 3065 3065 3065 3064 3063 3063 3063 3063 3063 3062 3062 3061 3061 3061 3061 3060
3059 3059 3059 3059 3059 3060 3060 3060 3060 3059 3059 3060 3060 3060 3060 3060 3060 3059 3059 3059 3059 3059 3060 3060 3060 3060 3059 3060 3059 3058 3058 3058 3058 3058 3057 3056 3056 3055 3055 3055 3055 3055
3054 3054 3054 3054 3054 3055 3055 3054 3054 3054 3054 3054 3055 3054 3054 3054 3054 3054 3054 3053 3053 3053 3054 3054 3054 3054 3053 3054 3053 3052 3052 3052 3052 3052 3051 3050 3051 3050 3050 3050 3049 3049
3050 3050 3050 3049 3049 3049 3049 3049 3049 3049 3049 3049 3050 3050 3049 3049 3049 3048 3048 3048 3048 3047 3047 3047 3047 3047 3047 3047 3047 3046 3046 3046 3046 3046 3045 3044 3045 3045 3045 3044 3043 3043
3045 3045 3045 3045 3045 3044 3044 3044 3045 3044 3045 3045 3045 3045 3045 3044 3044 3044 3043 3043 3043 3042 3042 3042 3041 3041 3041 3041 3040 3040 3040 3040 3040 3040 3038 3038 3039 3039 3039 3038 3037 3037
3041 3041 3041 3040 3040 3040 3040 3040 3040 3040 3040 3039 3039 3040 3040 3039 3039 3039 3039 3038 3038 3037 3037 3037 3036 3036 3036 3035 3034 3034 3034 3033 3033 3033 3032 3032 3032 3032 3032 3032 3031 3031
3037 3037 3037 3036 3036 3036 3036 3036 3036 3036 3035 3034 3034 3035 3034 3034 3034 3034 3033 3033 3032 3032 3032 3031 3031 3031 3030 3029 3028 3028 3028 3027 3027 3027 3026 3026 3026 3025 3026 3026 3025 3024
3033 3033 3033 3033 3033 3032 3032 3032 3031 3031 3030 3030 3030 3030 3030 3029 3029 3029 3028 3028 3027 3027 3027 3027 3026 3026 3025 3024 3023 3023 3022 3022 3022 3021 3020 3020 3019 3019 3020 3020 3019 3018
3029 3029 3029 3028 3028 3028 3027 3027 3027 3026 3026 3025 3025 3025 3025 3025 3024 3024 3023 3023 3023 3022 3022 3022 3021 3021 3020 3020 3019 3018 3017 3017 3016 3015 3015 3014 3013 3013 3013 3013 3012 3012
3025 3025 3024 3024 3023 3023 3023 3023 3022 3022 3021 3021 3020 3020 3020 3020 3020 3020 3019 3018 3018 3018 3017 3017 3016 3016 3015 3015 3014 3013 3012 3012 3011 3010 3009 3009 3008 3008 3007 3007 3006 3006
3020 3019 3019 3019 3019 3019 3019 3018 3018 3017 3017 3016 3015 3015 3015 3015 3015 3015 3015 3014 3013 3013 3012 3012 3011 3011 3010 3009 3009 3008 3007 3006 3006 3005 3004 3003 3003 3002 3002 3001 3001 3000
3013 3013 3013 3013 3013 3013 3013 3013 3012 3012 3011 3011 3010 3009 3009 3010 3010 3010 3009 3009 3008 3008 3007 3006 3006 3005 3004 3004 3003 3002 3002 3001 3000 2999 2998 2998 2997 2997 2996 2995 2995 2995
3007 3007 3007 3007 3006 3006 3006 3006 3006 3005 3005 3004 3004 3003 3003 3003 3003 3003 3003 3002 3002 3001 3001 3000 2999 2999 2999 2998 2997 2996 2995 2994 2993 2992 2992 2991 2991 2991 2990 2989 2989 2989
3001 3000 3000 3000 3000 2999 2999 2999 2999 2999 2998 2998 2997 2997 2997 2997 2996 2995 2995 2995 2995 2995 2994 2994 2993 2993 2993 2992 2991 2990 2989 2987 2987 2986 2984 2984 2983 2983 2983 2983 2982 2982
2994 2994 2993 2993 2992 2992 2992 2992 2992 2991 2991 2991 2991 2990 2990 2989 2989 2988 2988 2987 2987 2987 2988 2987 2987 2988 2988 2986 2985 2983 2982 2981 2980 2979 2978 2977 2976 2976 2975 2976 2975 2975
2988 2987 2986 2986 2985 2985 2985 2985 2984 2984 2984 2984 2983 2983 2982 2982 2982 2982 2981 2980 2980 2980 2980 2980 2981 2981 2981 2979 2978 2977 2975 2973 2972 2972 2971 2970 2969 2968 2968 2968 2968 2968
2981 2980 2980 2979 2979 2978 2978 2977 2976 2976 2977 2976 2976 2975 2975 2975 2975 2974 2974 2974 2972 2972 2972 2972 2973 2974 2973 2971 2970 2969 2968 2965 2964 2964 2963 2963 2962 2961 2960 2960 2960 2960
2974 2973 2973 2972 2971 2971 2970 2969 2969 2969 2969 2969 2968 2968 2967 2967 2967 2967 2966 2966 2965 2964 2964 2964 2965 2966 2965 2963 2962 2961 2959 2957 2956 2956 2955 2955 2955 2954 2954 2953 2953 2953
2965 2965 2965 2964 2964 2963 2963 2962 2961 2961 2962 2961 2960 2960 2960 2959 2959 2959 2959 2958 2957 2956 2955 2956 2957 2958 2956 2954 2953 2953 2951 2949 2948 2948 2947 2947 2947 2947 2946 2946 2946 2945
2957 2957 2956 2956 2955 2955 2955 2954 2954 2953 2954 2953 2952 2952 2952 2951 2951 2951 2950 2950 2949 2948 2947 2947 2949 2949 2947 2945 2945 2944 2942 2941 2940 2940 2939 2939 2939 2939 2939 2939 2939 2938
2949 2949 2949 2948 2948 2947 2947 2946 2946 2946 2946 2945 2944 2945 2944 2943 2943 2942 2942 2942 2941 2940 2939 2939 2941 2941 2938 2937 2937 2935 2933 2932 2932 2931 2931 2930 2931 2932 2931 2930 2931 2930
2942 2942 2942 2941 2940 2940 2940 2939 2939 2938 2938 2937 2936 2937 2937 2936 2935 2935 2934 2934 2933 2932 2931 2930 2932 2933 2930 2928 2928 2927 2925 2924 2923 2922 2922 2922 2922 2923 2922 2922 2922 2922
2935 2935 2935 2935 2934 2933 2933 2932 2932 2932 2931 2930 2929 2929 2929 2929 2927 2927 2927 2927 2925 2925 2924 2922 2923 2925 2923 2920 2921 2919 2916 2915 2915 2913 2912 2913 2913 2913 2913 2912 2913 2914
2929 2928 2928 2928 2928 2927 2926 2926 2925 2925 2924 2924 2922 2922 2922 2921 2920 2919 2920 2920 2918 2917 2916 2915 2914 2916 2915 2912 2912 2912 2908 2907 2906 2904 2904 2904 2904 2903 2904 2903 2903 2904
2923 2922 2922 2921 2921 2920 2919 2919 2918 2918 2917 2916 2915 2914 2914 2914 2913 2912 2912 2912 2911 2910 2909 2908 2905 2906 2907 2904 2903 2903 2901 2898 2898 2896 2896 2896 2895 2894 2894 2895 2895 2895